Weather History for Wallops Island, VA

Change the Weather History Date:

Friday, November 23, 2012

  Actual Average Record
Temperature  
Mean Temperature 48 °F 47 °F  
Max Temperature 60 °F 56 °F 77 °F (1992)
Min Temperature 35 °F 39 °F 22 °F (2008)
Degree Days  
Heating Degree Days 17    
Month to date heating degree days 369  
Since 1 July heating degree days 537  
Cooling Degree Days 0    
Month to date cooling degree days 0  
Year to date cooling degree days 1616  
Moisture  
Dew Point 38 °F    
Average Humidity 65    
Maximum Humidity 85    
Minimum Humidity 44    
Precipitation  
Precipitation T in 0.09 in 0.51 in (2011)
Month to date precipitation 0.49 2.17  
Year to date precipitation 45.11 36.71  
Sea Level Pressure  
Sea Level Pressure 30.00 in    
Wind  
Wind Speed 8 mph (WNW)    
Max Wind Speed 16 mph    
Max Gust Speed 23 mph    
Visibility 10 miles    
Events      
T = Trace of Precipitation, MM = Missing Value Source: NWS Daily Summary

Daily Weather History Graph

Daily Weather History Graph

Search for Another Location

Airport:

Trip Planner

Search our weather history database for the weather conditions in past years. The results will help you decide how hot, cold, wet, or windy it might be!

Date:

Astronomy

Nov. 23, 2012 Rise Set
Actual Time 6:51 AM EST 4:45 PM EST
Civil Twilight 6:22 AM EST 5:13 PM EST
Nautical Twilight 5:50 AM EST 5:45 PM EST
Astronomical Twilight 5:19 AM EST 6:17 PM EST
Moon 1:55 PM EST (11/23) 2:11 AM EST (11/23)
Length of Visible Light 10h 50m
Length of Day
9h 53m
Waxing Gibbous, 79% of the Moon is Illuminated
Nov 23
Waxing Gibbous
Nov 28
Full
Dec 6
Last Quarter
Dec 13
New
Dec 20
First Quarter

Hourly Weather History & Observations

Time (EST) Temp. Windchill Dew Point Humidity Pressure Visibility Wind Dir Wind Speed Gust Speed Precip Events Conditions
12:49 AM 41.0 °F 36.4 °F 37.4 °F 87% 30.13 in - NNW 6.9 mph - N/A   Scattered Clouds
12:54 AM 42.1 °F 38.4 °F 37.0 °F 82% 30.12 in - NNW 5.8 mph - N/A   Mostly Cloudy
1:21 AM 39.9 °F 35.8 °F 36.0 °F 86% 30.13 in - NW 5.8 mph - N/A   Mostly Cloudy
1:32 AM 39.0 °F 34.0 °F 35.1 °F 86% 30.12 in - NNW 6.9 mph - N/A   Mostly Cloudy
1:54 AM 39.9 °F 35.8 °F 36.0 °F 86% 30.12 in - NNW 5.8 mph - N/A   Overcast
2:47 AM 39.0 °F 34.0 °F 35.1 °F 86% 30.12 in - NNW 6.9 mph - N/A   Overcast
2:54 AM 39.0 °F 34.0 °F 35.1 °F 86% 30.10 in - NNW 6.9 mph - N/A   Overcast
3:16 AM 39.0 °F 34.0 °F 34.0 °F 82% 30.10 in - NNW 6.9 mph - N/A   Overcast
3:41 AM 37.9 °F 33.5 °F 34.0 °F 86% 30.09 in - NNW 5.8 mph - N/A   Overcast
3:54 AM 39.0 °F 33.4 °F 35.1 °F 86% 30.09 in - NNW 8.1 mph - N/A   Overcast
4:10 AM 39.0 °F 35.7 °F 35.1 °F 86% 30.09 in - NNW 4.6 mph - N/A   Overcast
4:37 AM 37.0 °F 31.6 °F 33.1 °F 86% 30.09 in - NNW 6.9 mph - N/A   Partly Cloudy
4:54 AM 37.0 °F 32.4 °F 33.1 °F 86% 30.07 in - NNW 5.8 mph - N/A   Clear
5:54 AM 37.9 °F - 34.0 °F 86% 30.09 in - Calm Calm - N/A   Clear
6:31 AM 36.0 °F 32.1 °F 32.0 °F 86% 30.09 in - NW 4.6 mph - N/A   Scattered Clouds
6:40 AM 36.0 °F 33.3 °F 32.0 °F 86% 30.09 in - NW 3.5 mph - N/A   Mostly Cloudy
6:52 AM 35.6 °F 31.7 °F 30.2 °F 81% 30.08 in - NW 4.6 mph - N/A   Scattered Clouds
6:54 AM 35.1 °F 32.2 °F 30.9 °F 85% 30.08 in - NW 3.5 mph - N/A   Scattered Clouds
7:26 AM 36.0 °F 33.3 °F 32.0 °F 86% 30.09 in - NW 3.5 mph - N/A   Mostly Cloudy
7:54 AM 37.0 °F 33.3 °F 33.1 °F 86% 30.08 in - NW 4.6 mph - N/A   Overcast
8:54 AM 44.1 °F - 39.9 °F 85% 30.05 in - Calm Calm - N/A   Mostly Cloudy
9:12 AM 46.0 °F 44.8 °F 41.0 °F 83% 30.06 in - NW 3.5 mph - N/A   Scattered Clouds
9:54 AM 50.0 °F - 44.1 °F 80% 30.04 in 8.0 mi NW 3.5 mph - N/A   Clear
10:54 AM 55.0 °F - 42.1 °F 62% 30.02 in 10.0 mi WNW 8.1 mph - N/A   Clear
11:54 AM 55.9 °F - 42.1 °F 60% 29.96 in 10.0 mi SW 6.9 mph - N/A   Clear
12:54 PM 57.0 °F - 43.0 °F 59% 29.94 in 10.0 mi South 9.2 mph - N/A   Clear
1:54 PM 55.9 °F - 44.1 °F 64% 29.91 in 10.0 mi SSW 9.2 mph - N/A   Clear
2:54 PM 55.0 °F - 44.1 °F 67% 29.86 in 10.0 mi SSW 12.7 mph - N/A   Clear
3:54 PM 53.1 °F - 44.1 °F 71% 29.84 in 10.0 mi SSW 12.7 mph - N/A   Clear
4:54 PM 51.1 °F - 44.1 °F 77% 29.83 in 10.0 mi SW 11.5 mph - N/A   Clear
5:54 PM 51.1 °F - 45.0 °F 80% 29.82 in 10.0 mi SW 10.4 mph - N/A   Clear
6:54 PM 53.1 °F - 45.0 °F 74% 29.81 in 10.0 mi SW 10.4 mph - N/A   Clear
7:54 PM 52.0 °F - 44.1 °F 74% 29.80 in 10.0 mi SW 9.2 mph - N/A   Clear
8:54 PM 52.0 °F - 44.1 °F 74% 29.78 in 10.0 mi SW 5.8 mph - N/A   Partly Cloudy
9:54 PM 55.0 °F - 41.0 °F 59% 29.75 in 10.0 mi WSW 8.1 mph - N/A   Overcast
10:54 PM 59.0 °F - 37.9 °F 46% 29.74 in 10.0 mi West 12.7 mph 21.9 mph 0.00 in   Overcast
11:54 PM 55.0 °F - 37.0 °F 51% 29.76 in 10.0 mi NNW 15.0 mph 21.9 mph N/A   Partly Cloudy